Date,TemperatureHighF,TemperatureAvgF,TemperatureLowF,DewpointHighF,DewpointAvgF,DewpointLowF,HumidityHigh,HumidityAvg,HumidityLow,PressureMaxIn,PressureMinIn,WindSpeedMaxMPH,WindSpeedAvgMPH,GustSpeedMaxMPH,PrecipitationSumIn
2012-1-1,53,44,29,-100,-100,-100,0,0,100,30.11,29.69,17,-409,21,0.00
2012-1-2,48,38,28,-100,-100,-100,0,0,100,29.84,29.69,17,-201,27,0.00
2012-1-3,29,24,15,-100,-100,-100,0,0,100,30.18,29.84,15,-111,28,0.00
2012-1-4,27,20,11,-100,-100,-100,0,0,100,30.28,29.99,9,-526,17,0.00
2012-1-5,40,31,23,-100,-100,-100,0,0,100,29.99,29.90,16,-659,23,0.00
2012-1-6,54,36,23,-100,-100,-100,0,0,100,29.97,29.77,20,-800,20,0.00
2012-1-7,64,42,24,-100,-100,-100,0,0,100,29.98,29.72,11,-510,25,0.00
2012-1-8,46,38,28,-100,-100,-100,0,0,100,30.32,29.98,7,-573,16,0.00
2012-1-9,41,32,25,-100,-100,-100,0,0,100,30.35,29.99,6,-960,8,0.00
2012-1-10,48,38,28,-100,-100,-100,0,0,100,30.01,29.90,12,-445,19,0.00
2012-1-11,48,36,21,-100,-100,-100,0,0,100,30.12,29.77,11,-557,15,0.00
2012-1-12,48,44,42,-100,-100,-100,0,0,100,29.77,29.43,17,-511,25,0.00
2012-1-13,46,35,28,-100,-100,-100,0,0,100,29.87,29.25,26,-241,38,0.00
2012-1-14,32,29,26,-100,-100,-100,0,0,100,30.10,29.87,15,-111,24,0.00
2012-1-15,26,21,15,-100,-100,-100,0,0,100,30.58,30.10,13,-481,19,0.00
2012-1-16,35,24,8,-100,-100,-100,0,0,100,30.64,30.16,11,-780,16,0.00
2012-1-17,53,41,33,-100,-100,-100,0,0,100,30.16,29.56,20,-436,20,0.00
2012-1-18,53,38,23,-100,-100,-100,0,0,100,30.18,29.57,23,-75,30,0.00
2012-1-19,35,26,12,-100,-100,-100,0,0,100,30.27,29.96,9,-687,10,0.00
2012-1-20,31,28,24,-100,-100,-100,0,0,100,30.29,29.96,13,-596,19,0.00
2012-1-21,28,26,24,-100,-100,-100,0,0,100,30.33,29.99,9,-388,12,0.00
2012-1-22,34,24,13,-100,-100,-100,0,0,100,30.54,30.33,7,-581,10,0.00
2012-1-23,50,38,33,-100,-100,-100,0,0,100,30.41,29.89,12,-804,19,0.00
2012-1-24,52,45,37,-100,-100,-100,0,0,100,30.14,29.89,12,-224,19,0.00
2012-1-25,45,39,33,-100,-100,-100,0,0,100,30.31,30.15,10,-584,18,0.00
2012-1-26,41,36,32,-100,-100,-100,0,0,100,30.24,29.80,8,-758,11,0.00
2012-1-27,58,47,40,-100,-100,-100,0,0,100,29.87,29.36,16,-540,28,0.00
2012-1-28,47,41,29,-100,-100,-100,0,0,100,30.06,29.87,10,-475,20,0.00
2012-1-29,44,37,27,-100,-100,-100,0,0,100,30.21,30.04,12,-249,20,0.00
2012-1-30,39,34,28,-100,-100,-100,0,0,100,30.31,30.05,13,-323,25,0.00
2012-1-31,60,45,30,-100,-100,-100,0,0,100,30.25,30.01,13,-456,18,0.00
2012-2-1,64,53,44,-100,-100,-100,0,0,100,30.01,29.89,15,-304,24,0.00
2012-2-2,47,40,33,-100,-100,-100,0,0,100,30.27,29.99,11,-366,22,0.00
2012-2-3,45,34,23,-100,-100,-100,0,0,100,30.47,30.27,10,-693,18,0.00
2012-2-4,44,34,23,-100,-100,-100,0,0,100,30.36,30.11,0,-999,7,0.00
2012-2-5,42,34,25,-100,-100,-100,0,0,100,30.19,30.09,12,-760,12,0.00
2012-2-6,51,38,24,-100,-100,-100,0,0,100,30.19,29.98,13,-288,20,0.00
2012-2-7,51,38,27,-100,-100,-100,0,0,100,30.24,29.98,10,-434,23,0.00
2012-2-8,36,32,30,-100,-100,-100,0,0,100,30.32,30.11,4,-773,9,0.00
2012-2-9,43,33,24,-100,-100,-100,0,0,100,30.18,30.10,12,-580,16,0.00
2012-2-10,46,35,23,-100,-100,-100,0,0,100,30.17,29.92,9,-718,11,0.00
2012-2-11,37,34,28,-100,-100,-100,0,0,100,29.92,29.59,12,-635,22,0.00
2012-2-12,32,26,18,-100,-100,-100,0,0,100,30.00,29.71,13,-885,22,0.00
2012-2-13,42,31,26,-100,-100,-100,0,0,100,30.09,29.98,12,-632,18,0.00
2012-2-14,50,38,29,-100,-100,-100,0,0,100,30.13,29.99,3,-929,8,0.00
2012-2-15,46,38,27,-100,-100,-100,0,0,100,30.28,30.05,8,-505,11,0.00
2012-2-16,41,34,25,-100,-100,-100,0,0,100,30.31,30.02,5,-910,8,0.00
2012-2-17,49,42,31,-100,-100,-100,0,0,100,30.03,29.94,11,-479,21,0.00
2012-2-18,51,39,26,-100,-100,-100,0,0,100,30.12,29.87,13,-387,24,0.00
2012-2-19,44,36,28,-100,-100,-100,0,0,100,30.09,29.93,7,-504,11,0.00
2012-2-20,47,37,29,-100,-100,-100,0,0,100,30.34,29.97,13,-205,19,0.00
2012-2-21,50,34,19,-100,-100,-100,0,0,100,30.38,29.87,11,-654,23,0.00
2012-2-22,59,44,30,-100,-100,-100,0,0,100,29.87,29.47,12,-664,18,0.00
2012-2-23,59,48,40,-100,-100,-100,0,0,100,29.74,29.40,20,-524,28,0.00
2012-2-24,47,41,37,-100,-100,-100,0,0,100,29.71,29.37,17,-236,33,0.00
2012-2-25,44,40,35,-100,-100,-100,0,0,100,30.03,29.47,25,13,37,0.00
2012-2-26,45,34,24,-100,-100,-100,0,0,100,30.43,30.12,21,-355,21,0.00
2012-2-27,59,39,20,-100,-100,-100,0,0,100,30.45,30.07,13,-449,18,0.00
2012-2-28,52,42,33,-100,-100,-100,0,0,100,30.38,30.13,13,-295,21,0.00
2012-2-29,43,38,30,-100,-100,-100,0,0,100,30.37,29.73,8,-511,17,0.00
2012-3-1,45,41,35,-100,-100,-100,0,0,100,29.96,29.66,8,-564,15,0.00
2012-3-2,42,39,34,-100,-100,-100,0,0,100,30.11,29.76,9,-165,12,0.00
2012-3-3,57,48,42,-100,-100,-100,0,0,100,29.76,29.49,17,-415,21,0.00
2012-3-4,46,40,34,-100,-100,-100,0,0,100,29.78,29.60,13,-438,23,0.00
2012-3-5,46,36,28,-100,-100,-100,0,0,100,30.40,29.78,12,-200,20,0.00
2012-3-6,45,33,21,-100,-100,-100,0,0,100,30.66,30.40,11,-576,14,0.00
2012-3-7,63,47,27,-100,-100,-100,0,0,100,30.59,30.30,12,-334,17,0.00
2012-3-8,71,61,51,-100,-100,-100,0,0,100,30.30,29.82,26,10,32,0.00
2012-3-9,63,46,36,-100,-100,-100,0,0,100,30.28,29.81,17,-118,25,0.00
2012-3-10,42,35,28,-100,-100,-100,0,0,100,30.52,30.28,12,-240,15,0.00
2012-3-11,60,46,25,-100,-100,-100,0,0,100,30.56,30.32,12,-392,18,0.00
2012-3-12,71,52,32,-100,-100,-100,0,0,100,30.35,30.10,9,-606,16,0.00
2012-3-13,74,62,51,-100,-100,-100,0,0,100,30.10,29.89,12,-239,16,0.00
2012-3-14,71,59,43,-100,-100,-100,0,0,100,30.16,29.95,15,-305,19,0.00
2012-3-15,50,45,41,-100,-100,-100,0,0,100,30.31,30.16,11,-106,16,0.00
2012-3-16,51,46,40,-100,-100,-100,0,0,100,30.28,30.11,8,-752,9,0.00
2012-3-17,65,50,37,-100,-100,-100,0,0,100,30.34,30.18,8,-382,13,0.00
2012-3-18,66,52,45,-100,-100,-100,0,0,100,30.37,30.17,8,-712,12,0.00
2012-3-19,77,60,44,-100,-100,-100,0,0,100,30.21,30.11,9,-606,14,0.00
2012-3-20,72,59,51,-100,-100,-100,0,0,100,30.30,30.19,8,-583,11,0.00
2012-3-21,69,59,51,-100,-100,-100,0,0,100,30.32,30.24,7,-698,10,0.00
2012-3-22,77,62,51,-100,-100,-100,0,0,100,30.26,30.04,7,-701,11,0.00
2012-3-23,77,61,49,-100,-100,-100,0,0,100,30.06,29.99,10,-489,20,0.00
2012-3-24,61,52,46,-100,-100,-100,0,0,100,30.06,29.95,11,-448,17,0.00
2012-3-25,54,48,44,-100,-100,-100,0,0,100,29.95,29.73,9,-403,12,0.00
2012-3-26,54,45,35,-100,-100,-100,0,0,100,30.14,29.71,21,-284,31,0.00
2012-3-27,53,39,29,-100,-100,-100,0,0,100,30.32,30.14,18,-228,22,0.00
2012-3-28,68,51,33,-100,-100,-100,0,0,100,30.16,29.54,11,-453,22,0.00
2012-3-29,60,53,43,-100,-100,-100,0,0,100,30.02,29.59,18,-38,24,0.00
2012-3-30,57,45,34,-100,-100,-100,0,0,100,30.09,29.92,13,-581,15,0.00
2012-3-31,44,41,40,-100,-100,-100,0,0,100,29.97,29.85,11,-576,12,0.00
2012-4-1,53,46,40,-100,-100,-100,0,0,100,29.91,29.60,9,-575,13,0.00
2012-4-2,57,48,39,-100,-100,-100,0,0,100,29.89,29.59,19,-126,26,0.00
2012-4-3,65,49,32,-100,-100,-100,0,0,100,29.97,29.77,13,-567,19,0.00
2012-4-4,69,57,46,-100,-100,-100,0,0,100,29.77,29.51,16,-378,28,0.00
2012-4-5,58,49,36,-100,-100,-100,0,0,100,29.92,29.72,10,-403,17,0.00
2012-4-6,58,46,31,-100,-100,-100,0,0,100,30.04,29.89,15,-392,20,0.00
2012-4-7,61,48,31,-100,-100,-100,0,0,100,30.11,29.95,15,-449,28,0.00
2012-4-8,68,53,34,-100,-100,-100,0,0,100,30.04,29.65,19,-291,30,0.00
2012-4-9,64,55,47,-100,-100,-100,0,0,100,29.76,29.64,18,-113,43,0.00
2012-4-10,60,51,42,-100,-100,-100,0,0,100,29.81,29.67,16,-220,25,0.00
2012-4-11,54,46,38,-100,-100,-100,0,0,100,29.91,29.80,19,-219,19,0.00
2012-4-12,60,50,41,-100,-100,-100,0,0,100,30.13,29.92,11,-339,18,0.00
2012-4-13,65,51,34,-100,-100,-100,0,0,100,30.22,30.10,13,-552,14,0.00
2012-4-14,73,57,35,-100,-100,-100,0,0,100,30.23,30.00,14,-669,14,0.00
2012-4-15,80,67,59,-100,-100,-100,0,0,100,30.02,29.92,11,-424,19,0.00
2012-4-16,90,72,52,-100,-100,-100,0,0,100,29.99,29.82,14,-489,18,0.00
2012-4-17,80,70,57,-100,-100,-100,0,0,100,30.10,29.86,10,-418,19,0.00
2012-4-18,61,55,49,-100,-100,-100,0,0,100,30.23,30.10,6,-842,11,0.00
2012-4-19,60,49,47,-100,-100,-100,0,0,100,30.12,30.09,9,-846,10,0.00
2012-4-23,41,41,40,-100,-100,-100,0,0,100,29.41,29.41,3,2,10,0.00
2012-4-24,61,50,38,-100,-100,-100,0,0,100,29.70,29.41,19,-167,22,0.00
2012-4-25,64,48,33,-100,-100,-100,0,0,100,29.90,29.70,9,-591,15,0.00
2012-4-26,62,49,33,-100,-100,-100,0,0,100,29.92,29.59,8,-751,10,0.00
2012-4-27,57,50,34,-100,-100,-100,0,0,100,30.15,29.59,18,-113,28,0.00
2012-4-28,59,46,32,-100,-100,-100,0,0,100,30.27,30.10,10,-428,16,0.00
2012-4-29,66,52,35,-100,-100,-100,0,0,100,30.22,30.06,9,-348,21,0.00
2012-4-30,67,52,30,-100,-100,-100,0,0,100,30.33,30.18,13,-787,13,0.00
2012-5-1,75,60,50,-100,-100,-100,0,0,100,30.18,29.96,6,-647,12,0.00
2012-5-2,56,52,50,-100,-100,-100,0,0,100,30.16,30.03,7,-449,11,0.00
2012-5-3,62,55,50,-100,-100,-100,0,0,100,30.19,30.04,5,-827,18,0.00
2012-5-4,80,63,54,-100,-100,-100,0,0,100,30.07,29.81,9,-793,10,0.00
2012-5-5,66,60,56,-100,-100,-100,0,0,100,30.01,29.81,7,-536,13,0.00
2012-5-6,66,58,47,-100,-100,-100,0,0,100,30.08,30.00,7,-418,11,0.00
2012-5-7,69,56,46,-100,-100,-100,0,0,100,30.12,30.06,5,-582,10,0.00
2012-5-8,73,62,55,-100,-100,-100,0,0,100,30.07,29.80,14,-432,20,0.00
2012-5-9,71,65,60,-100,-100,-100,0,0,100,29.80,29.56,7,-852,12,0.00
2012-5-10,66,57,46,-100,-100,-100,0,0,100,29.83,29.51,12,-347,21,0.00
2012-5-11,72,58,44,-100,-100,-100,0,0,100,30.11,29.83,14,-212,25,0.00
2012-5-12,80,61,40,-100,-100,-100,0,0,100,30.23,30.11,9,-488,16,0.00
2012-5-13,84,69,54,-100,-100,-100,0,0,100,30.16,30.02,13,-420,15,0.00
2012-5-14,69,65,61,-100,-100,-100,0,0,100,30.10,30.04,8,-630,11,0.00
2012-5-15,72,65,60,-100,-100,-100,0,0,100,30.06,29.88,7,-775,10,0.00
2012-5-16,82,71,62,-100,-100,-100,0,0,100,29.90,29.77,9,-622,12,0.00
2012-5-17,73,63,50,-100,-100,-100,0,0,100,30.10,29.85,7,-400,17,0.00
2012-5-18,71,58,43,-100,-100,-100,0,0,100,30.20,30.10,5,-639,10,0.00
2012-5-19,79,62,44,-100,-100,-100,0,0,100,30.16,30.06,7,-521,10,0.00
2012-5-20,77,64,47,-100,-100,-100,0,0,100,30.19,30.13,9,-480,15,0.00
2012-5-21,64,61,59,-100,-100,-100,0,0,100,30.15,29.95,5,-542,11,0.00
2012-5-22,71,65,61,-100,-100,-100,0,0,100,29.95,29.76,2,-975,5,0.00
2012-5-23,79,68,62,-100,-100,-100,0,0,100,29.97,29.82,3,-916,6,0.00
2012-5-24,73,66,62,-100,-100,-100,0,0,100,30.13,29.97,8,-561,13,0.00
2012-5-25,78,68,62,-100,-100,-100,0,0,100,30.15,30.07,5,-778,8,0.00
2012-5-26,87,72,62,-100,-100,-100,0,0,100,30.11,30.01,9,-697,20,0.00
2012-5-27,82,73,67,-100,-100,-100,0,0,100,30.12,29.95,4,-796,8,0.00
2012-5-28,91,79,68,-100,-100,-100,0,0,100,29.97,29.86,9,-455,13,0.00
2012-5-29,92,78,68,-100,-100,-100,0,0,100,29.87,29.65,10,-435,21,0.00
2012-5-30,78,71,64,-100,-100,-100,0,0,100,29.75,29.67,5,-764,9,0.00
2012-5-31,80,70,58,-100,-100,-100,0,0,100,29.88,29.67,7,-451,14,0.00
2012-6-1,72,63,53,-100,-100,-100,0,0,100,29.93,29.88,13,-282,18,0.00
2012-6-2,74,67,54,-100,-100,-100,0,0,100,29.76,29.70,11,-317,18,0.00
2012-6-3,76,61,49,-100,-100,-100,0,0,100,29.78,29.65,9,-515,21,0.00
2012-6-4,63,57,54,-100,-100,-100,0,0,100,29.79,29.61,5,-880,10,0.00
2012-6-5,66,57,47,-100,-100,-100,0,0,100,29.96,29.80,6,-777,7,0.00
2012-6-6,75,61,46,-100,-100,-100,0,0,100,30.02,29.92,6,-669,10,0.00
2012-6-7,77,65,54,-100,-100,-100,0,0,100,29.98,29.89,20,-627,20,0.00
2012-6-8,82,68,52,-100,-100,-100,0,0,100,29.95,29.81,12,-641,15,0.00
2012-6-9,82,69,57,-100,-100,-100,0,0,100,29.94,29.86,8,-582,16,0.00
2012-6-10,88,74,64,-100,-100,-100,0,0,100,30.15,29.94,7,-556,10,0.00
2012-6-11,76,70,62,-100,-100,-100,0,0,100,30.19,30.13,8,-368,12,0.00
2012-6-12,72,67,65,-100,-100,-100,0,0,100,30.14,29.85,8,-789,16,0.00
2012-6-13,75,68,63,-100,-100,-100,0,0,100,30.04,29.83,11,-485,16,0.00
2012-6-14,75,66,59,-100,-100,-100,0,0,100,30.22,30.04,7,-659,10,0.00
2012-6-15,79,67,54,-100,-100,-100,0,0,100,30.29,30.21,6,-573,9,0.00
2012-6-16,78,66,54,-100,-100,-100,0,0,100,30.32,30.18,5,-510,11,0.00
2012-6-17,73,65,54,-100,-100,-100,0,0,100,30.22,30.06,7,-443,10,0.00
2012-6-18,71,62,49,-100,-100,-100,0,0,100,30.15,30.07,6,-522,8,0.00
2012-6-19,81,70,62,-100,-100,-100,0,0,100,30.17,30.04,5,-560,10,0.00
2012-6-20,97,82,67,-100,-100,-100,0,0,100,30.06,29.92,6,-510,15,0.00
2012-6-21,97,83,70,-100,-100,-100,0,0,100,29.94,29.75,13,-450,15,0.00
2012-6-22,93,80,70,-100,-100,-100,0,0,100,29.81,29.73,6,-702,10,0.00
2012-6-23,86,76,65,-100,-100,-100,0,0,100,29.96,29.80,11,-568,17,0.00
2012-6-24,86,73,59,-100,-100,-100,0,0,100,30.02,29.85,8,-610,9,0.00
2012-6-25,80,70,63,-100,-100,-100,0,0,100,29.85,29.62,10,-480,17,0.00
2012-6-26,75,65,55,-100,-100,-100,0,0,100,29.78,29.70,16,-130,19,0.00
2012-6-27,83,69,53,-100,-100,-100,0,0,100,29.84,29.74,13,-434,22,0.00
2012-6-28,91,76,58,-100,-100,-100,0,0,100,29.84,29.68,8,-597,19,0.00
2012-6-29,95,81,67,-100,-100,-100,0,0,100,29.70,29.59,9,-333,16,0.00
2012-6-30,95,84,70,-100,-100,-100,0,0,100,29.78,29.64,10,-262,18,0.00
2012-7-1,97,81,64,-100,-100,-100,0,0,100,29.85,29.73,13,-508,20,0.00
2012-7-2,88,77,64,-100,-100,-100,0,0,100,29.91,29.83,9,-296,15,0.00
2012-7-3,93,77,59,-100,-100,-100,0,0,100,29.95,29.80,7,-693,16,0.00
2012-7-4,94,82,71,-100,-100,-100,0,0,100,29.86,29.70,8,-384,15,0.00
2012-7-5,95,84,72,-100,-100,-100,0,0,100,29.84,29.72,9,-279,14,0.00
2012-7-6,96,80,62,-100,-100,-100,0,0,100,29.91,29.83,8,-475,14,0.00
2012-7-7,99,83,72,-100,-100,-100,0,0,100,29.86,29.74,9,-442,34,0.00
2012-7-8,91,82,74,-100,-100,-100,0,0,100,29.87,29.77,6,-633,11,0.00
2012-7-9,86,78,68,-100,-100,-100,0,0,100,29.95,29.84,4,-776,9,0.00
2012-7-10,87,75,64,-100,-100,-100,0,0,100,30.04,29.95,6,-706,10,0.00
2012-7-11,88,77,64,-100,-100,-100,0,0,100,30.16,30.04,5,-637,9,0.00
2012-7-12,92,78,65,-100,-100,-100,0,0,100,30.18,30.08,9,-434,12,0.00
2012-7-13,88,78,64,-100,-100,-100,0,0,100,30.17,30.10,7,-520,8,0.00
2012-7-14,85,77,70,-100,-100,-100,0,0,100,30.21,30.11,12,-502,19,0.00
2012-7-15,91,78,71,-100,-100,-100,0,0,100,30.12,29.89,9,-607,16,0.00
2012-7-16,91,79,67,-100,-100,-100,0,0,100,29.90,29.74,10,-508,13,0.00
2012-7-17,97,82,67,-100,-100,-100,0,0,100,29.85,29.73,11,-508,16,0.00
2012-7-18,100,84,73,-100,-100,-100,0,0,100,29.83,29.70,14,-337,30,0.00
2012-7-19,76,73,70,-100,-100,-100,0,0,100,29.93,29.81,5,-850,8,0.00
2012-7-20,72,66,63,-100,-100,-100,0,0,100,30.03,29.88,7,-751,9,0.00
2012-7-21,79,69,62,-100,-100,-100,0,0,100,30.11,30.01,7,-737,10,0.00
2012-7-22,85,72,61,-100,-100,-100,0,0,100,30.17,30.06,8,-634,11,0.00
2012-7-23,91,77,66,-100,-100,-100,0,0,100,30.11,29.81,10,-405,15,0.00
2012-7-24,95,82,72,-100,-100,-100,0,0,100,29.81,29.55,14,-129,21,0.00
2012-7-25,87,75,64,-100,-100,-100,0,0,100,29.90,29.74,14,-279,16,0.00
2012-7-26,92,75,63,-100,-100,-100,0,0,100,29.78,29.62,12,-459,17,0.00
2012-7-27,88,78,70,-100,-100,-100,0,0,100,29.86,29.68,11,-564,12,0.00
2012-7-28,83,75,70,-100,-100,-100,0,0,100,29.92,29.84,7,-589,7,0.00
2012-7-29,83,73,67,-100,-100,-100,0,0,100,30.02,29.90,6,-907,6,0.00
2012-7-30,82,71,64,-100,-100,-100,0,0,100,30.09,30.01,7,-642,10,0.00
2012-7-31,80,72,65,-100,-100,-100,0,0,100,30.06,29.90,5,-639,8,0.00
2012-8-1,82,72,68,-100,-100,-100,0,0,100,29.93,29.80,8,-768,8,0.00
2012-8-2,91,76,67,-100,-100,-100,0,0,100,29.91,29.82,6,-782,11,0.00
2012-8-3,91,78,68,-100,-100,-100,0,0,100,30.08,29.91,4,-687,11,0.00
2012-8-4,90,78,69,-100,-100,-100,0,0,100,30.18,30.08,12,-736,18,0.00
2012-8-5,94,81,72,-100,-100,-100,0,0,100,30.16,29.93,10,-325,39,0.00
2012-8-6,83,75,72,-100,-100,-100,0,0,100,30.02,29.98,8,-616,11,0.00
2012-8-8,87,82,73,-100,-100,-100,0,0,100,29.96,29.88,5,-672,6,0.00
2012-8-9,90,77,68,-100,-100,-100,0,0,100,29.94,29.83,11,-686,11,0.00
2012-8-10,82,75,71,-100,-100,-100,0,0,100,29.86,29.71,5,-865,7,0.00
2012-8-11,87,78,70,-100,-100,-100,0,0,100,29.86,29.77,10,-593,19,0.00
2012-8-12,85,75,67,-100,-100,-100,0,0,100,29.94,29.87,10,-398,15,0.00
2012-8-13,85,74,62,-100,-100,-100,0,0,100,29.99,29.92,12,-469,16,0.00
2012-8-14,77,69,62,-100,-100,-100,0,0,100,29.95,29.85,6,-716,10,0.00
2012-8-15,85,74,67,-100,-100,-100,0,0,100,29.87,29.77,4,-963,10,0.00
2012-8-16,85,72,64,-100,-100,-100,0,0,100,29.92,29.83,12,-652,15,0.00
2012-8-17,89,74,60,-100,-100,-100,0,0,100,29.88,29.73,6,-569,15,0.00
2012-8-18,80,69,60,-100,-100,-100,0,0,100,29.91,29.81,5,-801,9,0.00
2012-8-19,73,64,54,-100,-100,-100,0,0,100,29.98,29.90,3,-954,6,0.00
2012-8-20,79,69,60,-100,-100,-100,0,0,100,29.91,29.81,5,-819,6,0.00
2012-8-21,81,71,61,-100,-100,-100,0,0,100,30.07,29.91,5,-783,11,0.00
2012-8-22,85,72,60,-100,-100,-100,0,0,100,30.12,30.05,5,-687,9,0.00
2012-8-23,85,72,60,-100,-100,-100,0,0,100,30.15,30.07,6,-752,8,0.00
2012-8-24,86,74,62,-100,-100,-100,0,0,100,30.17,30.09,5,-826,6,0.00
2012-8-25,81,72,64,-100,-100,-100,0,0,100,30.25,30.17,9,-638,10,0.00
2012-8-26,80,72,64,-100,-100,-100,0,0,100,30.29,30.19,7,-588,11,0.00
2012-8-27,80,72,65,-100,-100,-100,0,0,100,30.18,29.95,7,-693,10,0.00
2012-8-28,86,77,66,-100,-100,-100,0,0,100,29.93,29.80,14,-412,16,0.00
2012-8-29,79,69,60,-100,-100,-100,0,0,100,30.01,29.91,6,-589,9,0.00
2012-8-30,82,67,54,-100,-100,-100,0,0,100,30.13,30.01,8,-593,13,0.00
2012-8-31,90,73,57,-100,-100,-100,0,0,100,30.09,29.89,11,-373,16,0.00
2012-9-1,89,77,66,-100,-100,-100,0,0,100,30.04,29.92,7,-563,14,0.00
2012-9-2,81,74,69,-100,-100,-100,0,0,100,30.06,29.98,4,-956,7,0.00
2012-9-3,75,72,70,-100,-100,-100,0,0,100,30.10,30.04,8,-410,14,0.00
2012-9-4,80,76,71,-100,-100,-100,0,0,100,30.05,29.82,5,-682,12,0.00
2012-9-5,83,76,65,-100,-100,-100,0,0,100,29.84,29.75,8,-395,15,0.00
2012-9-6,79,70,62,-100,-100,-100,0,0,100,29.89,29.83,5,-729,7,0.00
2012-9-7,89,75,67,-100,-100,-100,0,0,100,29.91,29.82,6,-656,10,0.00
2012-9-8,86,74,64,-100,-100,-100,0,0,100,29.85,29.54,22,-507,22,0.00
2012-9-9,78,67,60,-100,-100,-100,0,0,100,29.89,29.75,5,-537,11,0.00
2012-9-10,72,62,54,-100,-100,-100,0,0,100,30.13,29.89,8,-219,17,0.00
2012-9-11,74,59,45,-100,-100,-100,0,0,100,30.29,30.14,8,-694,10,0.00
2012-9-12,80,63,47,-100,-100,-100,0,0,100,30.37,30.28,6,-882,8,0.00
2012-9-13,80,64,50,-100,-100,-100,0,0,100,30.37,30.24,8,-822,10,0.00
2012-9-14,82,67,52,-100,-100,-100,0,0,100,30.27,30.06,5,-646,13,0.00
2012-9-15,73,64,53,-100,-100,-100,0,0,100,30.14,30.05,10,-413,16,0.00
2012-9-16,75,60,47,-100,-100,-100,0,0,100,30.15,30.02,8,-737,16,0.00
2012-9-17,79,62,45,-100,-100,-100,0,0,100,30.13,30.01,6,-788,11,0.00
2012-9-18,77,70,65,-100,-100,-100,0,0,100,30.01,29.61,14,-432,25,0.00
2012-9-19,69,62,48,-100,-100,-100,0,0,100,30.16,29.72,12,-428,16,0.00
2012-9-20,70,58,44,-100,-100,-100,0,0,100,30.22,30.09,5,-532,12,0.00
2012-9-21,73,61,51,-100,-100,-100,0,0,100,30.11,30.00,6,-653,9,0.00
2012-9-22,82,66,51,-100,-100,-100,0,0,100,30.01,29.75,7,-657,15,0.00
2012-9-23,68,60,47,-100,-100,-100,0,0,100,30.12,29.85,10,-375,20,0.00
2012-9-24,67,54,46,-100,-100,-100,0,0,100,30.20,30.10,10,-618,17,0.00
2012-9-25,73,57,39,-100,-100,-100,0,0,100,30.23,30.12,13,-577,18,0.00
2012-9-26,78,68,60,-100,-100,-100,0,0,100,30.14,30.00,7,-249,14,0.00
2012-9-27,74,67,63,-100,-100,-100,0,0,100,30.14,30.04,5,-823,8,0.00
2012-9-28,77,67,62,-100,-100,-100,0,0,100,30.13,29.90,8,-694,12,0.00
2012-9-29,66,61,54,-100,-100,-100,0,0,100,29.93,29.87,9,-576,13,0.00
2012-9-30,69,57,50,-100,-100,-100,0,0,100,29.88,29.78,7,-703,14,0.00
2012-10-1,71,57,45,-100,-100,-100,0,0,100,29.97,29.84,9,-586,19,0.00
2012-10-2,66,62,57,-100,-100,-100,0,0,100,30.01,29.94,0,-999,6,0.00
2012-10-3,71,67,63,-100,-100,-100,0,0,100,30.10,29.98,0,-999,3,0.00
2012-10-4,76,68,59,-100,-100,-100,0,0,100,30.12,30.02,2,-952,5,0.00
2012-10-5,79,65,53,-100,-100,-100,0,0,100,30.07,29.91,7,-650,12,0.00
2012-10-6,76,62,49,-100,-100,-100,0,0,100,30.00,29.77,15,-443,21,0.00
2012-10-7,51,47,41,-100,-100,-100,0,0,100,30.14,30.00,3,-925,8,0.00
2012-10-8,53,46,37,-100,-100,-100,0,0,100,30.29,30.13,5,-849,7,0.00
2012-10-9,58,54,47,-100,-100,-100,0,0,100,30.23,30.09,5,-727,8,0.00
2012-10-10,67,58,53,-100,-100,-100,0,0,100,30.09,29.82,10,-486,19,0.00
2012-10-11,60,50,41,-100,-100,-100,0,0,100,30.24,29.99,13,-375,14,0.00
2012-10-12,57,45,36,-100,-100,-100,0,0,100,30.46,30.11,11,-568,21,0.00
2012-10-13,55,43,29,-100,-100,-100,0,0,100,30.55,30.33,6,-868,11,0.00
2012-10-14,73,58,42,-100,-100,-100,0,0,100,30.33,29.94,10,-491,25,0.00
2012-10-15,69,63,58,-100,-100,-100,0,0,100,29.94,29.65,9,-333,19,0.00
2012-10-16,58,51,38,-100,-100,-100,0,0,100,29.94,29.70,16,-292,23,0.00
2012-10-17,63,47,34,-100,-100,-100,0,0,100,30.05,29.94,9,-777,9,0.00
2012-10-18,68,52,36,-100,-100,-100,0,0,100,30.08,29.92,7,-552,18,0.00
2012-10-19,69,65,62,-100,-100,-100,0,0,100,29.92,29.65,6,-592,16,0.00
2012-10-20,67,58,45,-100,-100,-100,0,0,100,29.86,29.66,10,-625,17,0.00
2012-10-21,65,53,41,-100,-100,-100,0,0,100,30.06,29.86,13,-436,22,0.00
2012-10-22,67,54,46,-100,-100,-100,0,0,100,30.15,30.03,11,-173,18,0.00
2012-10-23,64,53,43,-100,-100,-100,0,0,100,30.14,30.07,0,-999,0,0.00
2012-10-24,66,59,54,-100,-100,-100,0,0,100,30.18,30.08,5,-604,8,0.00
2012-10-25,61,58,57,-100,-100,-100,0,0,100,30.26,30.18,6,-751,7,0.00
2012-10-26,67,61,58,-100,-100,-100,0,0,100,30.23,30.10,3,-901,7,0.00
2012-10-27,64,60,55,-100,-100,-100,0,0,100,30.10,29.90,8,-535,12,0.00
2012-10-28,58,57,56,-100,-100,-100,0,0,100,29.90,29.65,14,-28,20,0.00
2012-10-29,60,55,52,-100,-100,-100,0,0,100,29.65,28.45,22,9,41,0.00
2012-11-2,46,44,41,-100,-100,-100,0,0,100,0.00,40.00,13,8,16,0.00
2012-11-3,48,43,40,-100,-100,-100,0,0,100,29.82,29.75,13,7,18,0.00
2012-11-4,49,42,33,-100,-100,-100,0,0,100,29.88,29.82,11,-230,17,0.00
2012-11-5,46,38,28,-100,-100,-100,0,0,100,30.06,29.87,12,-248,15,0.00
2012-11-6,43,31,20,-100,-100,-100,0,0,100,30.13,29.94,5,-754,9,0.00
2012-11-7,40,35,32,-100,-100,-100,0,0,100,29.94,29.76,11,-400,18,0.00
2012-11-8,45,38,32,-100,-100,-100,0,0,100,29.95,29.77,15,-467,23,0.00
2012-11-9,54,42,33,-100,-100,-100,0,0,100,30.19,29.95,12,-239,17,0.00
2012-11-10,55,42,31,-100,-100,-100,0,0,100,30.39,30.19,5,-913,6,0.00
2012-11-11,67,50,33,-100,-100,-100,0,0,100,30.46,30.38,6,-655,10,0.00
2012-11-12,69,59,39,-100,-100,-100,0,0,100,30.43,30.13,8,-292,16,0.00
2012-11-13,62,47,34,-100,-100,-100,0,0,100,30.43,30.09,11,-79,20,0.00
2012-11-14,48,38,28,-100,-100,-100,0,0,100,30.52,30.43,8,-462,13,0.00
2012-11-15,46,34,26,-100,-100,-100,0,0,100,30.44,30.28,6,-709,10,0.00
2012-11-16,47,37,26,-100,-100,-100,0,0,100,30.43,30.28,5,-553,10,0.00
2012-11-17,53,36,26,-100,-100,-100,0,0,100,30.60,30.43,7,-538,11,0.00
2012-11-18,49,37,24,-100,-100,-100,0,0,100,30.65,30.53,8,-664,10,0.00
2012-11-19,49,41,30,-100,-100,-100,0,0,100,30.53,30.26,6,-440,11,0.00
2012-11-20,52,41,29,-100,-100,-100,0,0,100,30.18,30.09,5,-868,9,0.00
2012-11-21,53,40,28,-100,-100,-100,0,0,100,30.20,30.12,7,-549,9,0.00
2012-11-22,55,39,26,-100,-100,-100,0,0,100,30.26,30.12,6,-712,7,0.00
2012-11-23,57,41,26,-100,-100,-100,0,0,100,30.12,29.68,8,-603,12,0.00
2012-11-24,49,40,35,-100,-100,-100,0,0,100,29.86,29.68,14,-26,23,0.00
2012-11-25,40,35,29,-100,-100,-100,0,0,100,29.96,29.86,16,-170,20,0.00
2012-11-26,49,36,26,-100,-100,-100,0,0,100,30.23,29.96,13,-507,23,0.00
2012-11-27,34,33,26,-100,-100,-100,0,0,100,30.27,30.19,0,-999,4,0.00
2012-11-28,40,33,26,-100,-100,-100,0,0,100,30.29,30.19,11,-457,19,0.00
2012-11-29,43,32,22,-100,-100,-100,0,0,100,30.38,30.28,14,-474,20,0.00
2012-11-30,45,34,22,-100,-100,-100,0,0,100,30.41,30.32,6,-717,12,0.00
2012-12-1,42,40,37,-100,-100,-100,0,0,100,30.49,30.40,7,-137,12,0.00
2012-12-2,50,43,39,-100,-100,-100,0,0,100,30.40,30.11,5,-931,8,0.00
2012-12-3,62,50,39,-100,-100,-100,0,0,100,30.22,30.12,6,-735,11,0.00
2012-12-4,68,54,42,-100,-100,-100,0,0,100,30.23,29.97,6,-832,13,0.00
2012-12-5,56,49,33,-100,-100,-100,0,0,100,30.24,29.90,17,8,22,0.00
2012-12-6,40,30,24,-100,-100,-100,0,0,100,30.36,30.24,7,-734,10,0.00
2012-12-7,40,30,23,-100,-100,-100,0,0,100,30.27,30.00,0,-999,0,0.00
2012-12-8,49,45,40,-100,-100,-100,0,0,100,30.00,29.86,5,-949,10,0.00
2012-12-9,48,44,41,-100,-100,-100,0,0,100,30.21,29.98,7,-798,9,0.00
2012-12-10,58,50,44,-100,-100,-100,0,0,100,29.98,29.54,0,-999,5,0.00
2012-12-11,48,44,34,-100,-100,-100,0,0,100,30.19,29.60,8,-355,18,0.00
2012-12-12,43,35,29,-100,-100,-100,0,0,100,30.41,30.19,7,-690,11,0.00
2012-12-13,45,33,24,-100,-100,-100,0,0,100,30.46,30.31,6,-766,8,0.00
2012-12-14,49,33,20,-100,-100,-100,0,0,100,30.32,30.16,9,-617,15,0.00
2012-12-15,48,35,26,-100,-100,-100,0,0,100,30.31,30.17,6,-768,9,0.00
2012-12-16,50,46,40,-100,-100,-100,0,0,100,30.17,29.88,11,-513,13,0.00
2012-12-17,45,42,40,-100,-100,-100,0,0,100,29.88,29.59,7,-867,9,0.00
2012-12-18,56,47,41,-100,-100,-100,0,0,100,29.65,29.44,16,-412,26,0.00
2012-12-19,49,42,31,-100,-100,-100,0,0,100,30.10,29.65,16,-206,23,0.00
2012-12-20,46,36,27,-100,-100,-100,0,0,100,30.21,29.71,10,-406,15,0.00
2012-12-21,56,44,35,-100,-100,-100,0,0,100,29.71,29.12,22,10,36,0.00
2012-12-22,40,37,35,-100,-100,-100,0,0,100,29.75,29.36,22,11,36,0.00
2012-12-23,45,36,28,-100,-100,-100,0,0,100,29.96,29.86,14,-186,16,0.00
2012-12-24,39,32,23,-100,-100,-100,0,0,100,30.11,29.92,7,-936,8,0.00
2012-12-25,40,36,30,-100,-100,-100,0,0,100,30.26,29.91,9,-366,13,0.00
2012-12-26,38,31,25,-100,-100,-100,0,0,100,30.29,29.48,13,-376,26,0.00
2012-12-27,40,36,30,-100,-100,-100,0,0,100,29.89,29.31,19,-82,28,0.00
2012-12-28,38,32,24,-100,-100,-100,0,0,100,30.11,29.89,13,-905,13,0.00
2012-12-29,33,30,24,-100,-100,-100,0,0,100,30.06,29.53,0,-999,0,0.00
2012-12-30,36,31,26,-100,-100,-100,0,0,100,30.21,29.64,0,-999,0,0.00
2012-12-31,37,33,26,-100,-100,-100,0,0,100,30.24,29.92,0,-999,12,0.00
2013-1-1,40,37,27,-100,-100,-100,0,0,100,30.03,29.85,6,-943,11,0.00